Plattsmouth, NE

2:01 AM CST on December 09, 2019 (GMT -0600)
Plattsmouth Municipal

Weather History for KPMV - October, 2019

Change the Weather History Date:

Monday, October 21, 2019

  Actual Average (WUND) Record (WUND)
Temperature  
Mean Temperature 48 °F -  
Max Temperature 55 °F - - (-1)
Min Temperature 41 °F - - (-1)
Degree Days  
Heating Degree Days 18    
Moisture  
Dew Point 43 °F    
Average Humidity 85    
Maximum Humidity 100    
Minimum Humidity 65    
Precipitation  
Precipitation 0.00 in - - ()
Sea Level Pressure  
Sea Level Pressure 29.51 in    
Wind  
Wind Speed 14 mph (WSW)    
Max Wind Speed 30 mph    
Max Gust Speed 40 mph    
Visibility 10 miles    
Events Rain    
Averages and records for this station are not official NWS values.
T = Trace of Precipitation, MM = Missing Value Source: NWS Daily Summary

Daily Weather History Graph

Daily Weather History Graph

Search for Another Location

Airport or City:

Astronomy

Oct. 21, 2019 Rise Set
Actual Time 7:41 AM CDT 6:34 PM CDT
Civil Twilight 7:13 AM CDT 7:02 PM CDT
Nautical Twilight 6:41 AM CDT 7:34 PM CDT
Astronomical Twilight 6:09 AM CDT 8:06 PM CDT
Moon No Moon Rise 3:01 PM CDT (10/21)
Length of Visible Light 11h 48m
Length of Day
10h 52m
Waning Gibbous, 48% of the Moon is Illuminated
Oct 21
Waning Gibbous
Oct 27
New
Nov 4
First Quarter
Nov 12
Full
Nov 19
Last Quarter

Hourly Weather History & Observations

Time (CDT) Temp. Windchill Dew Point Humidity Pressure Visibility Wind Dir Wind Speed Gust Speed Precip Events Conditions
12:15 AM 53.1 °F - 53.1 °F 100% 29.51 in 10.0 mi SSE 9.2 mph - N/A   Scattered Clouds
12:35 AM 53.6 °F - 53.6 °F 100% 29.52 in 10.0 mi SSE 11.5 mph 17.3 mph N/A   Scattered Clouds
12:55 AM 53.2 °F - 53.2 °F 100% 29.50 in 10.0 mi SSE 8.1 mph - N/A   Clear
1:15 AM 52.5 °F - 52.5 °F 100% 29.49 in 10.0 mi South 6.9 mph - N/A   Clear
1:35 AM 51.4 °F - 51.4 °F 100% 29.48 in 10.0 mi South 6.9 mph - N/A   Clear
1:55 AM 50.9 °F - 50.9 °F 100% 29.47 in 10.0 mi South 9.2 mph - N/A   Clear
2:15 AM 50.9 °F - 50.9 °F 100% 29.47 in 10.0 mi South 5.8 mph - N/A   Scattered Clouds
2:35 AM 49.5 °F - 49.5 °F 100% 29.46 in 10.0 mi SSW 5.8 mph - N/A   Scattered Clouds
2:55 AM 47.3 °F - 47.3 °F 100% 29.45 in 10.0 mi SW 10.4 mph - N/A   Clear
3:15 AM 47.3 °F - 41.2 °F 79% 29.45 in 10.0 mi SW 11.5 mph - N/A   Clear
3:35 AM 46.6 °F - 39.6 °F 77% 29.43 in 10.0 mi SW 11.5 mph - N/A   Clear
3:55 AM 45.3 °F 40.1 °F 39.4 °F 80% 29.42 in 10.0 mi SW 10.4 mph - N/A   Clear
4:15 AM 44.6 °F 39.7 °F 39.2 °F 81% 29.43 in 10.0 mi SW 9.2 mph - N/A   Clear
4:35 AM 44.1 °F 38.6 °F 39.2 °F 83% 29.43 in 10.0 mi SW 10.4 mph - N/A   Clear
4:55 AM 43.2 °F 38.4 °F 38.7 °F 84% 29.44 in 10.0 mi SW 8.1 mph - N/A   Clear
5:15 AM 42.8 °F 37.5 °F 38.8 °F 86% 29.44 in 10.0 mi SW 9.2 mph - N/A   Clear
5:35 AM 41.9 °F 36.9 °F 38.8 °F 89% 29.43 in 10.0 mi SW 8.1 mph - N/A   Clear
5:55 AM 42.1 °F 35.7 °F 39.2 °F 90% 29.42 in 10.0 mi WSW 11.5 mph - N/A   Clear
6:15 AM 41.9 °F 35.4 °F 39.4 °F 91% 29.42 in 10.0 mi WSW 11.5 mph - N/A   Clear
6:35 AM 41.7 °F 35.2 °F 39.6 °F 92% 29.41 in 10.0 mi SW 11.5 mph - N/A   Clear
6:55 AM 41.9 °F 35.4 °F 39.9 °F 93% 29.41 in 10.0 mi WSW 11.5 mph - N/A   Clear
7:15 AM 41.9 °F 35.4 °F 40.1 °F 93% 29.40 in 10.0 mi WSW 11.5 mph 17.3 mph N/A   Mostly Cloudy
7:35 AM 42.8 °F 35.8 °F 40.6 °F 92% 29.40 in 10.0 mi WSW 13.8 mph 19.6 mph N/A   Overcast
7:55 AM 42.8 °F 35.1 °F 40.3 °F 91% 29.39 in 10.0 mi WSW 16.1 mph 23.0 mph N/A   Overcast
8:15 AM 42.8 °F 34.5 °F 39.7 °F 89% 29.39 in 10.0 mi WSW 18.4 mph 24.2 mph N/A   Overcast
8:35 AM 42.6 °F 34.3 °F 39.2 °F 88% 29.39 in 10.0 mi WSW 18.4 mph 29.9 mph N/A   Overcast
8:55 AM 42.8 °F 35.4 °F 39.2 °F 87% 29.40 in 10.0 mi West 15.0 mph 23.0 mph N/A   Overcast
9:15 AM 42.8 °F 35.4 °F 39.4 °F 88% 29.41 in 10.0 mi West 15.0 mph 23.0 mph N/A   Overcast
9:35 AM 43.0 °F 34.8 °F 38.8 °F 85% 29.41 in 10.0 mi West 18.4 mph 25.3 mph N/A   Overcast
9:55 AM 43.2 °F 35.0 °F 39.4 °F 86% 29.42 in 10.0 mi West 18.4 mph 21.9 mph N/A   Overcast
10:15 AM 43.9 °F 36.5 °F 39.6 °F 85% 29.41 in 10.0 mi West 16.1 mph 26.5 mph N/A   Overcast
10:35 AM 45.0 °F 38.5 °F 40.5 °F 84% 29.41 in 10.0 mi WSW 13.8 mph 18.4 mph N/A   Overcast
10:55 AM 45.9 °F 39.4 °F 40.8 °F 83% 29.42 in 10.0 mi West 15.0 mph 23.0 mph N/A   Overcast
11:15 AM 48.2 °F - 42.1 °F 79% 29.43 in 10.0 mi West 16.1 mph 24.2 mph N/A   Overcast
11:35 AM 48.2 °F - 41.5 °F 78% 29.42 in 10.0 mi West 17.3 mph 23.0 mph N/A   Overcast
11:55 AM 48.2 °F - 41.7 °F 78% 29.43 in 10.0 mi West 20.7 mph 26.5 mph N/A   Overcast
12:15 PM 47.8 °F - 42.1 °F 80% 29.43 in 10.0 mi WSW 16.1 mph 25.3 mph N/A   Overcast
12:35 PM 48.9 °F - 42.8 °F 79% 29.43 in 10.0 mi WSW 16.1 mph 24.2 mph N/A   Overcast
12:55 PM 50.0 °F - 43.3 °F 78% 29.44 in 10.0 mi West 20.7 mph 27.6 mph N/A   Overcast
1:15 PM 50.5 °F - 44.2 °F 79% 29.45 in 10.0 mi West 18.4 mph 26.5 mph N/A   Overcast
1:35 PM 50.0 °F - 44.6 °F 82% 29.45 in 10.0 mi West 15.0 mph 24.2 mph N/A   Overcast
1:55 PM 51.8 °F - 45.5 °F 79% 29.45 in 10.0 mi West 21.9 mph 26.5 mph N/A   Overcast
2:15 PM 53.6 °F - 43.9 °F 70% 29.46 in 10.0 mi West 21.9 mph 35.7 mph N/A   Overcast
2:35 PM 54.7 °F - 43.2 °F 65% 29.46 in 10.0 mi West 21.9 mph 29.9 mph N/A   Overcast
2:55 PM 54.1 °F - 42.4 °F 65% 29.47 in 10.0 mi West 21.9 mph 34.5 mph N/A   Mostly Cloudy
3:15 PM 53.2 °F - 43.7 °F 70% 29.49 in 10.0 mi WNW 26.5 mph 36.8 mph N/A   Overcast
3:35 PM 50.7 °F - 45.3 °F 82% 29.50 in 10.0 mi West 24.2 mph 32.2 mph N/A   Overcast
3:55 PM 50.2 °F - 44.1 °F 79% 29.52 in 10.0 mi West 23.0 mph 31.1 mph N/A   Overcast
4:15 PM 50.0 °F - 44.6 °F 82% 29.52 in 10.0 mi WSW 24.2 mph 31.1 mph N/A   Overcast
4:35 PM 50.5 °F - 43.0 °F 75% 29.53 in 10.0 mi West 21.9 mph 29.9 mph N/A   Overcast
4:55 PM 50.2 °F - 42.8 °F 76% 29.55 in 10.0 mi West 27.6 mph 36.8 mph N/A   Overcast
5:15 PM 49.3 °F - 43.7 °F 81% 29.56 in 10.0 mi West 21.9 mph 34.5 mph N/A   Overcast
5:35 PM 48.6 °F - 44.1 °F 84% 29.57 in 7.0 mi West 23.0 mph 35.7 mph N/A   Overcast
5:55 PM 49.1 °F - 43.2 °F 80% 29.58 in 10.0 mi West 29.9 mph 38.0 mph N/A   Overcast
6:15 PM 48.4 °F - 43.2 °F 82% 29.60 in 10.0 mi West 26.5 mph 36.8 mph N/A Rain Light Rain
6:35 PM 46.8 °F - 44.1 °F 90% 29.61 in 10.0 mi West 20.7 mph 32.2 mph N/A Rain Light Rain
6:55 PM 46.4 °F 39.2 °F 44.2 °F 92% 29.62 in 10.0 mi West 18.4 mph 27.6 mph N/A Rain Light Rain
7:15 PM 46.8 °F - 44.1 °F 90% 29.64 in 10.0 mi West 18.4 mph 27.6 mph N/A   Overcast
7:35 PM 46.8 °F - 44.1 °F 90% 29.65 in 10.0 mi West 21.9 mph 29.9 mph N/A   Overcast
7:55 PM 46.9 °F - 43.0 °F 86% 29.66 in 10.0 mi West 18.4 mph 32.2 mph N/A   Overcast
8:15 PM 47.3 °F - 42.8 °F 84% 29.67 in 10.0 mi West 27.6 mph 35.7 mph N/A   Overcast
8:35 PM 47.3 °F - 42.1 °F 82% 29.67 in 10.0 mi WNW 28.8 mph 35.7 mph N/A   Overcast
8:55 PM 47.3 °F - 41.7 °F 81% 29.68 in 10.0 mi WNW 25.3 mph 38.0 mph N/A   Overcast
9:15 PM 46.9 °F - 41.2 °F 80% 29.69 in 10.0 mi WNW 28.8 mph 40.3 mph N/A   Overcast
9:35 PM 46.8 °F - 41.0 °F 80% 29.71 in 10.0 mi WNW 25.3 mph 38.0 mph N/A   Overcast
9:55 PM 46.9 °F - 41.0 °F 80% 29.71 in 10.0 mi WNW 20.7 mph 32.2 mph N/A   Overcast
10:15 PM 46.9 °F - 41.0 °F 80% 29.72 in 10.0 mi West 20.7 mph 32.2 mph N/A   Overcast
10:35 PM 46.9 °F - 41.2 °F 80% 29.73 in 10.0 mi West 24.2 mph 31.1 mph N/A   Overcast
10:55 PM 46.8 °F - 41.0 °F 80% 29.74 in 10.0 mi WNW 19.6 mph 36.8 mph N/A   Overcast
11:15 PM 46.8 °F - 41.0 °F 80% 29.74 in 10.0 mi West 19.6 mph 35.7 mph N/A   Overcast
11:35 PM 46.8 °F - 40.6 °F 79% 29.75 in 10.0 mi West 20.7 mph 27.6 mph N/A   Overcast
11:55 PM 46.9 °F - 40.5 °F 78% 29.76 in 10.0 mi WNW 25.3 mph 29.9 mph N/A   Overcast